This is the latest recevied weather packets stored in our database for station/object DB0MW-13. If no packets are shown the sender has not sent any weather packets the latest 10 day(s).
| Time | Temp. | Humidity | Pressure | Rain* | Wind** | Luminosity | Snow |
|---|---|---|---|---|---|---|---|
| 1777552801 | 19.44° C | 21% | 1028 hPa | 0 mm | - | - | - |
| 1777552501 | 18.89° C | 21% | 1028.1 hPa | 0 mm | - | - | - |
| 1777552201 | 18.89° C | 21% | 1028.5 hPa | 0 mm | - | - | - |
| 1777551901 | 18.33° C | 21% | 1028.2 hPa | 0 mm | - | - | - |
| 1777551601 | 18.33° C | 21% | 1028.3 hPa | 0 mm | - | - | - |
| 1777551301 | 18.33° C | 23% | 1028.7 hPa | 0 mm | - | - | - |
| 1777551001 | 18.33° C | 24% | 1028.6 hPa | 0 mm | - | - | - |
| 1777550701 | 17.78° C | 24% | 1028.7 hPa | 0 mm | - | - | - |
| 1777550101 | 17.78° C | 23% | 1028.5 hPa | 0 mm | - | - | - |
| 1777549501 | 17.22° C | 24% | 1028.7 hPa | 0 mm | - | - | - |
| 1777548301 | 17.22° C | 25% | 1028.9 hPa | 0 mm | - | - | - |
| 1777548000 | 17.22° C | 25% | 1029.2 hPa | 0 mm | - | - | - |
| 1777547701 | 17.22° C | 26% | 1029 hPa | 0 mm | - | - | - |
| 1777545306 | 15.56° C | 27% | 1029.8 hPa | 0 mm | - | - | - |
| 1777545000 | 15.56° C | 27% | 1029.4 hPa | 0 mm | - | - | - |
| 1777544700 | 15.56° C | 27% | 1029.6 hPa | 0 mm | - | - | - |
| 1777544400 | 15° C | 29% | 1029.5 hPa | 0 mm | - | - | - |
| 1777544100 | 14.44° C | 29% | 1029.3 hPa | 0 mm | - | - | - |
| 1777543800 | 14.44° C | 30% | 1029.7 hPa | 0 mm | - | - | - |
| 1777543500 | 14.44° C | 29% | 1029.6 hPa | 0 mm | - | - | - |
| 1777543200 | 14.44° C | 30% | 1029.6 hPa | 0 mm | - | - | - |
| 1777542900 | 14.44° C | 29% | 1029.6 hPa | 0 mm | - | - | - |
| 1777542300 | 13.89° C | 31% | 1029.7 hPa | 0 mm | - | - | - |
| 1777542000 | 13.89° C | 30% | 1029.9 hPa | 0 mm | - | - | - |
| 1777541700 | 13.33° C | 31% | 1029.9 hPa | 0 mm | - | - | - |
* Rain latest hour (hover to see other rain measurements)
** Current wind speed in m/s (hover to see current wind gust speed)